User: anonymous   Login
Location: Newark
(25.0000°N, 73.5000°E)
Time: 15:10:04
(UTC+00:00)
Language:

Transit 2A Rocket - Orbit

View from above orbital plane
View from above orbital plane
View from above satellite
View from above satellite

Ground track
Ground track

The orbit data is extracted from the following two-line orbital elements,

1 00047U 60007C   21056.63043290  .00000008  00000-0  26912-4 0  9997
2 00047  66.6655 198.0069 0220897 118.9714 243.3733 14.42134066171183
Epoch (UTC): 25 February 2021 15:07:49
Eccentricity: 0.0220897
inclination: 66.6655°
perigee height: 594 km
apogee height: 909 km
right ascension of ascending node: 198.0069°
argument of perigee: 118.9714°
revolutions per day: 14.42134066
mean anomaly at epoch: 243.3733°
orbit number at epoch: 17118

The dashed part of the orbit path shows where the satellite is in the earth's shadow,  

DLR